Tracking 19164 objects as of 20-May-2018
HD Live streaming from Space Station
objects crossing your sky now

DFS 2

Track DFS 2 now!
DFS 2 is classified as:


NORAD ID: 20706
Int'l Code: 1990-063B
Perigee: 35,971.6 km
Apogee: 36,022.4 km
Inclination: 13.2 °
Period: 1,446.5 minutes
Semi major axis: 42367 km
RCS: 2 m2 (large)
Launch date: July 24, 1990
Source: Germany (GER)
Launch site: FRENCH GUIANA (FRGUI)
aabbcc
Your satellite tracking list
Your tracking list is empty




NASA's NSSDC Master Catalog

Two Line Element Set (TLE):
1 20706U 90063B   18140.12457413 -.00000060  00000-0  00000+0 0  9990
2 20706  13.2388  26.8719 0005989 287.1893 342.9022  0.99551108 93556
Source of the keplerian elements: AFSPC